Find Kosmos-1554

NORAD ID: 14977 Int'l Des: 1984-047 Owner: GUKOS Country: SU Constellation: GLONASS operational
MEOCIRCULAR

Current View

Loading 3D Globe...

About Kosmos-1554

Description loading...

Upcoming Passes

Passes for default location (London). Set your location on the main map for personalized predictions.

Altitude History

Loading altitude history...

Two-Line Element Set

1 14977U 84047A 26147.39677125 -.00000058 00000-0 00000+0 0 9994
2 14977 66.3788 328.8240 0017840 212.4063 158.4361 2.13100375103445
Epoch: May 27, 2026 • Age: 63 hours

Current Status

Altitude 19102.0 km
Velocity 3.96 km/s
Sub-Earth Point -43.87°S, 83.86°W
Launch Date May 19, 1984
Age 42 years
Type other

Technical Details

Classification Payload
Mass 1300.00 kg
Dry Mass 1200.00 kg
Total Mass 1300.00 kg
Length 4.00 m
Diameter 1.50 m
Span 7.80 m
Shape Cyl + Ant + 2 Pan
Manufacturer OAZ
Bus Type Uragan
Phase Status In Orbit
Owner/State GUKOS/SU

Most Searched